Weather History for KFSD - June, 2014

Change the Weather History Date:

Wednesday, June 18, 2014

  Actual Average Record
Temperature  
Mean Temperature 77 °F 69 °F  
Max Temperature 86 °F 80 °F 101 °F (1953)
Min Temperature 67 °F 57 °F 42 °F (1902)
Degree Days  
Heating Degree Days 0 1  
Month to date heating degree days 32 43  
Since 1 June heating degree days 32 43  
Since 1 July heating degree days 8320 7698  
Cooling Degree Days 12 5  
Month to date cooling degree days 51 60  
Year to date cooling degree days 104 96  
Since 1 June cooling degree days 51 60  
Growing Degree Days 26 (Base 50)    
Moisture  
Dew Point 68 °F    
Average Humidity 79    
Maximum Humidity 87    
Minimum Humidity 70    
Precipitation  
Precipitation 0.01 in 0.13 in 1.94 in (1955)
Month to date precipitation 13.04 2.39  
Year to date precipitation 18.02 11.72  
Snow  
Snow 0.00 in 0.00 in 0.00 in ()
Month to date snowfall T 0.0  
Since 1 June snowfall T 0.0  
Since 1 July snowfall 45.3 44.5  
Snow Depth 0.00 in    
Sea Level Pressure  
Sea Level Pressure 29.71 in    
Wind  
Wind Speed 13 mph (ESE)    
Max Wind Speed 25 mph    
Max Gust Speed 32 mph    
Visibility 10 miles    
Events Rain , Thunderstorm    
T = Trace of Precipitation, MM = Missing Value Source: NWS Daily Summary

Daily Weather History Graph

Daily Weather History Graph

Search for Another Location

Airport or City:

Trip Planner

Search our weather history database for the weather conditions in past years. The results will help you decide how hot, cold, wet, or windy it might be!

Date:

Astronomy

Jun. 18, 2014 Rise Set
Actual Time 5:45 AM CDT 9:11 PM CDT
Civil Twilight 5:09 AM CDT 9:47 PM CDT
Nautical Twilight 4:22 AM CDT 10:34 PM CDT
Astronomical Twilight 3:23 AM CDT 11:33 PM CDT
Moon 12:30 AM CDT (6/18) 12:20 PM CDT (6/18)
Length of Visible Light 16h 37m
Length of Day
15h 25m
Waning Gibbous, 62% of the Moon is Illuminated
Jun 18
Waning Gibbous
Jun 19
Last Quarter
Jun 27
New
Jul 5
First Quarter
Jul 12
Full

Hourly Weather History & Observations

Time (CDT) Temp. Heat Index Dew Point Humidity Pressure Visibility Wind Dir Wind Speed Gust Speed Precip Events Conditions
12:04 AM 70.0 °F - 64.9 °F 84% 29.74 in 10.0 mi East 15.0 mph - N/A   Scattered Clouds
12:15 AM 71.1 °F - 64.9 °F 81% 29.74 in 10.0 mi East 12.7 mph - N/A   Partly Cloudy
12:56 AM 73.4 °F - 69.8 °F 88% 29.75 in 10.0 mi East 13.8 mph - N/A   Mostly Cloudy
1:56 AM 69.1 °F - 63.0 °F 81% 29.75 in 10.0 mi ENE 16.1 mph - 0.01 in   Mostly Cloudy
2:27 AM 68.0 °F - 61.0 °F 78% 29.75 in 10.0 mi East 10.4 mph - N/A Thunderstorm Mostly Cloudy
2:48 AM 68.0 °F - 61.0 °F 78% 29.73 in 10.0 mi ESE 13.8 mph - 0.00 in Rain Light Rain
2:56 AM 69.1 °F - 61.0 °F 75% 29.68 in 10.0 mi SE 12.7 mph - 0.00 in   Overcast
3:08 AM 70.0 °F - 60.1 °F 71% 29.69 in 10.0 mi SE 15.0 mph - N/A Thunderstorm Mostly Cloudy
3:34 AM 70.0 °F - 60.1 °F 71% 29.68 in 10.0 mi SSE 12.7 mph - N/A Thunderstorm Thunderstorm
3:56 AM 70.0 °F - 60.1 °F 71% 29.68 in 10.0 mi SSE 12.7 mph 23.0 mph N/A Thunderstorm Clear
4:25 AM 70.0 °F - 59.0 °F 68% 29.71 in 10.0 mi SE 9.2 mph - N/A   Clear
4:41 AM 69.1 °F - 60.1 °F 73% 29.72 in 10.0 mi ESE 8.1 mph - N/A Thunderstorm Clear
4:46 AM 69.1 °F - 60.1 °F 73% 29.72 in 10.0 mi SE 8.1 mph - N/A   Overcast
4:56 AM 70.0 °F - 59.0 °F 68% 29.70 in 10.0 mi SE 8.1 mph - N/A   Overcast
5:56 AM 68.0 °F - 61.0 °F 78% 29.72 in 10.0 mi NE 13.8 mph - N/A   Overcast
6:56 AM 68.0 °F - 62.1 °F 81% 29.70 in 10.0 mi East 9.2 mph - N/A   Overcast
7:56 AM 71.1 °F - 64.0 °F 78% 29.71 in 10.0 mi East 11.5 mph - N/A   Overcast
8:56 AM 72.0 °F - 62.1 °F 71% 29.72 in 10.0 mi SE 11.5 mph - N/A   Overcast
9:56 AM 73.0 °F - 64.9 °F 76% 29.72 in 10.0 mi SE 15.0 mph - N/A   Overcast
10:56 AM 75.9 °F - 70.0 °F 82% 29.71 in 10.0 mi ESE 12.7 mph - N/A   Overcast
11:19 AM 77.0 °F - 71.1 °F 82% 29.74 in 10.0 mi East 12.7 mph - N/A   Overcast
11:56 AM 78.1 °F - 72.0 °F 81% 29.74 in 10.0 mi ESE 10.4 mph - N/A   Overcast
12:56 PM 75.0 °F - 70.0 °F 84% 29.74 in 10.0 mi East 12.7 mph - 0.00 in   Overcast
1:56 PM 75.9 °F - 71.1 °F 85% 29.74 in 10.0 mi ESE 15.0 mph - 0.00 in   Overcast
2:30 PM 79.0 °F - 72.0 °F 79% 29.74 in 10.0 mi ESE 21.9 mph 31.1 mph 0.00 in   Overcast
2:56 PM 81.0 °F 85.8 °F 73.0 °F 77% 29.70 in 10.0 mi ESE 21.9 mph 31.1 mph 0.00 in   Scattered Clouds
3:31 PM 82.0 °F 87.9 °F 73.9 °F 76% 29.72 in 10.0 mi ESE 18.4 mph 27.6 mph N/A   Mostly Cloudy
3:56 PM 82.9 °F 89.4 °F 73.9 °F 74% 29.70 in 10.0 mi SE 17.3 mph 32.2 mph N/A   Mostly Cloudy
4:10 PM 82.0 °F 87.9 °F 73.9 °F 76% 29.73 in 10.0 mi ESE 16.1 mph 28.8 mph N/A   Mostly Cloudy
4:22 PM 82.0 °F 87.9 °F 73.9 °F 76% 29.73 in 10.0 mi East 15.0 mph 24.2 mph N/A   Mostly Cloudy
4:35 PM 82.9 °F 90.2 °F 75.0 °F 77% 29.73 in 10.0 mi ESE 16.1 mph 21.9 mph N/A   Mostly Cloudy
4:43 PM 82.9 °F 90.2 °F 75.0 °F 77% 29.73 in 10.0 mi ESE 15.0 mph - N/A   Mostly Cloudy
4:56 PM 82.9 °F 90.2 °F 75.0 °F 77% 29.69 in 10.0 mi ESE 16.1 mph - N/A   Mostly Cloudy
5:56 PM 84.9 °F 92.1 °F 73.9 °F 69% 29.68 in 10.0 mi SE 20.7 mph 27.6 mph N/A   Partly Cloudy
6:56 PM 86.0 °F 95.1 °F 75.0 °F 70% 29.67 in 10.0 mi SE 13.8 mph 25.3 mph N/A   Mostly Cloudy
7:56 PM 84.0 °F 91.2 °F 73.9 °F 72% 29.67 in 10.0 mi SE 15.0 mph 21.9 mph N/A   Scattered Clouds
8:56 PM 82.9 °F 89.4 °F 73.9 °F 74% 29.68 in 10.0 mi ESE 12.7 mph - N/A   Mostly Cloudy
9:56 PM 81.0 °F 86.2 °F 73.9 °F 79% 29.67 in 10.0 mi SE 12.7 mph - N/A   Mostly Cloudy
10:56 PM 80.1 °F 84.5 °F 73.9 °F 81% 29.67 in 10.0 mi SSE 16.1 mph - N/A   Scattered Clouds
11:56 PM 79.0 °F - 73.0 °F 82% 29.72 in 10.0 mi WSW 4.6 mph - N/A   Mostly Cloudy